Terminal Aerodrome Forecast
Issued by NWS

Home | Current Version | Previous Version | Text Only | Print | Product List | Glossary On
Versions: 1 2 3 4 5 6 7 8 9 10 11 12 13 14 15 16 17 18 19 20 21 22 23 24 25
406
FTUS45 KPSR 280854 AAA
TAFPHX
TAF AMD
KPHX 280854Z 2809/2906 VRB04KT P6SM SKC
     FM281100 11005KT P6SM SKC
     FM282100 25007KT P6SM SKC=

USA.gov is the U.S. government's official web portal to all federal, state and local government web resources and services.